Location: Bill Sadowski Park
(25.6087°N, 80.3181°W)
Time: 22:34:50
(UTC-04:00)

OTV 5 (USA 277) - Visible Passes

Search period start: 22 October 2017 00:00
Search period end: 01 November 2017 00:00
Orbit: 404 x 417 km, 43.0° (Epoch: 07 September)

Date Brightness Start Highest point End Pass type
(mag) Time Alt. Az. Time Alt. Az. Time Alt. Az.
22 Oct ? 19:18:20 10° N 19:20:01 13° NNE 19:21:41 10° NE visible
22 Oct ? 20:54:15 10° NW 20:54:37 13° NW 20:54:37 13° NW visible
23 Oct ? 20:03:15 10° NW 20:06:27 51° NNE 20:06:27 51° NNE visible
24 Oct ? 19:12:25 10° NNW 19:15:26 30° NNE 19:18:26 10° E visible
24 Oct ? 20:49:57 10° W 20:51:16 17° WSW 20:51:16 17° WSW visible
25 Oct ? 19:58:28 10° WNW 20:01:40 41° SW 20:03:32 21° SSE visible
26 Oct ? 19:07:17 10° NW 19:10:39 82° SW 19:14:00 10° SE visible
27 Oct ? 19:55:10 10° WSW 19:56:36 12° SW 19:58:04 10° SSW visible
28 Oct ? 19:02:59 10° W 19:05:40 22° SW 19:08:20 10° S visible
